[[{"header":{"parameterUnit":"m.s-1","parameterCategory":1,"la1":30.2991,"la2":30.254,"lo1":-89.0895,"lo2":-89.0444,"dy":0.0017,"dx":0.0017,"nx":28,"ny":28,"refTime":"2025-08-23T21:00:00:Z","depth":0,"parameterNumber":2,"parameterNumberName":"U-component_of_WINDS"},"data":[0,0,0,0,0,0,0,0,0,0,0,0,0,0,0,0,0,0,0,0,0,0,0,0,0,0,0,0,0,0,0,0,0,0,0,0,0,0,0,0,0,0,0,0,0,0,0,0,0,0,0,0,0,0,0,0,0,0,-2.7642,-2.7641,0,-2.7606,-2.7605,-2.7605,-2.7505,-2.7503,-2.75,-2.7498,-2.7465,-2.7466,-2.7467,0,0,0,0,0,0,0,0,0,0,0,0,0,-2.7628,-2.7628,-2.7642,-2.7641,-2.7641,-2.7606,-2.7605,-2.7605,-2.7505,-2.7502,-2.75,-2.7497,-2.7464,-2.7465,-2.7467,0,0,0,0,0,0,0,0,0,0,0,0,0,-2.7617,-2.7629,-2.7642,-2.7587,-2.7581,-2.7606,-2.7605,-2.7605,-2.7506,-2.7502,-2.7499,-2.7496,-2.7464,-2.7465,-2.7467,-2.7543,0,0,-2.7472,-2.7473,0,0,0,0,0,0,0,0,-2.7618,-2.7618,-2.7595,-2.7591,-2.7585,-2.7556,-2.7588,-2.7584,-2.7506,-2.7535,-2.7498,-2.7494,-2.7498,-2.7497,-2.7497,-2.7541,-2.754,-2.7472,-2.7473,-2.7474,-2.7475,0,0,0,0,0,0,0,-2.7619,-2.7619,-2.7627,-2.7595,-2.7589,-2.7565,-2.756,-2.7587,-2.7535,-2.7532,-2.7524,-2.7521,-2.7494,-2.7496,-2.7496,-2.7539,-2.7472,-2.7474,-2.7475,-2.7475,-2.7646,-2.7649,0,0,0,0,0,0,-2.7627,-2.762,-2.7629,-2.7626,-2.7593,-2.7568,-2.7562,-2.7569,-2.7534,-2.7526,-2.7524,-2.7517,-2.7494,-2.7494,-2.7494,-2.7581,-2.7474,-2.7476,-2.7477,-2.7642,-2.7646,-2.765,0,0,0,0,0,0,-2.7627,-2.7629,-2.763,-2.7621,-2.7619,-2.7572,-2.758,-2.757,-2.7571,-2.7529,-2.7519,-2.7535,-2.7492,-2.7492,-2.7532,-2.7579,-2.7476,-2.7478,-2.7638,-2.7643,-2.7648,-2.7757,0,0,0,0,0,0,-2.7627,-2.7629,-2.7656,-2.7622,-2.762,-2.7667,-2.7583,-2.7571,-2.7574,-2.7564,-2.7536,-2.7528,-2.7489,-2.753,-2.7533,-2.7579,-2.7479,-2.7633,-2.764,-2.7647,-2.7749,-2.7765,-2.7779,0,0,0,0,0,-2.7627,-2.7689,-2.7658,-2.766,-2.7653,-2.767,-2.7669,-2.7622,-2.7578,-2.7606,-2.7579,-2.7529,-2.7573,-2.7535,-2.7538,-2.7585,-2.763,-2.7638,-2.7646,-2.7742,-2.7762,-2.7779,0,0,0,0,0,0,-2.773,-2.7683,-2.7649,-2.7701,-2.7691,-2.7653,-2.7687,-2.7644,-2.7646,-2.7637,-2.7579,-2.7574,-2.7622,-2.7607,-2.7565,-2.7658,-2.7594,-2.7603,-2.7665,-2.7684,-2.7699,-2.7702,-2.7481,0,0,0,0,0,-2.7759,-2.7775,-2.7734,-2.7784,-2.778,-2.7735,-2.774,-2.7705,-2.7692,-2.7687,-2.7663,-2.7653,-2.7664,-2.7673,-2.7681,-2.7746,-2.7739,-2.778,-2.7796,-2.7808,-2.7817,-2.7852,-2.787,-2.7676,-2.7676,-2.7676,0,0,-2.7819,-2.7795,-2.7809,-2.7805,-2.7792,-2.7812,-2.7732,-2.7756,-2.777,-2.7691,-2.7727,-2.771,-2.7695,-2.7748,-2.777,-2.7737,-2.7869,-2.7818,-2.7829,-2.783,-2.7862,-2.788,-2.7896,-2.7681,-2.768,-2.768,0,0,-2.7938,-2.7921,-2.7962,-2.7951,-2.7933,-2.7902,-2.7912,-2.7882,-2.7867,-2.7902,-2.7844,-2.7861,-2.7881,-2.7874,-2.7872,-2.7991,-2.7946,-2.7995,-2.8074,-2.8109,-2.8124,-2.8138,-2.8181,-2.8197,-2.8004,-2.8004,-2.8004,0,-2.8015,-2.8041,-2.7988,-2.8016,-2.8017,-2.7946,-2.7988,-2.798,-2.7966,-2.7969,-2.7931,-2.7957,-2.7942,-2.7993,-2.8022,-2.8023,-2.8034,-2.7998,-2.8126,-2.8139,-2.8151,-2.8192,-2.8208,-2.801,-2.8009,-2.8009,-2.8008,0,-2.8137,-2.8157,-2.8192,-2.818,-2.8184,-2.8219,-2.8173,-2.8185,-2.8149,-2.8123,-2.8162,-2.8141,-2.8144,-2.8154,-2.812,-2.8201,-2.8181,-2.8136,-2.8071,-2.8176,-2.8214,-2.8229,-2.8019,-2.8017,-2.8015,-2.8013,0,0,-2.832,-2.8279,-2.8293,-2.8287,-2.8262,-2.8277,-2.831,-2.8312,-2.8324,-2.8317,-2.8344,-2.8364,-2.8322,-2.8321,-2.8286,-2.8316,-2.8413,-2.8267,-2.8266,-2.8296,-2.8503,-2.8538,-2.8557,-2.8383,-2.8386,-2.8388,-2.8505,0,-2.8433,-2.8485,-2.844,-2.8501,-2.852,-2.8453,-2.8482,-2.8471,-2.8448,-2.8461,-2.8436,-2.8451,-2.8395,-2.8394,-2.8421,-2.8396,-2.8454,-2.8387,-2.8409,-2.8411,-2.8416,-2.8576,-2.8612,-2.8723,-2.8519,-2.8521,-2.8523,0,-2.8572,-2.8571,-2.8635,-2.8607,-2.8613,-2.864,-2.864,-2.8653,-2.864,-2.8621,-2.8621,-2.8577,-2.8609,-2.8545,-2.8589,-2.8544,-2.8551,-2.854,-2.8544,-2.8544,-2.8474,-2.8582,-2.8757,-2.8775,-2.8546,-2.8544,-2.8542,0,-2.87,-2.8715,-2.8755,-2.8753,-2.8721,-2.8742,-2.873,-2.8714,-2.8719,-2.8719,-2.8722,-2.8727,-2.8729,-2.8735,-2.8694,-2.8651,-2.8744,-2.8676,-2.8731,-2.8732,-2.8754,-2.8753,-2.8934,-2.8757,-2.8757,-2.8757,-2.8756,0,-2.8832,-2.8874,-2.8813,-2.8838,-2.8883,-2.8831,-2.8878,-2.8859,-2.8846,-2.8867,-2.881,-2.8831,-2.8776,-2.8793,-2.8762,-2.8804,-2.8805,-2.8792,-2.8784,-2.8798,-2.88,-2.8802,-2.8793,-2.8761,-2.876,-2.8759,-2.8758,0,-2.8983,-2.8944,-2.8983,-2.8951,-2.8944,-2.8979,-2.8952,-2.8974,-2.8948,-2.8976,-2.8979,-2.8938,-2.8955,-2.8915,-2.8926,-2.8905,-2.8965,-2.8944,-2.897,-2.8964,-2.9021,-2.9017,-2.921,-2.9233,-2.9041,-2.9043,-2.9045,0,-2.907,-2.9101,-2.9072,-2.9081,-2.9073,-2.9089,-2.9094,-2.9045,-2.9053,-2.9041,-2.9066,-2.9077,-2.9084,-2.9113,-2.9085,-2.9094,-2.9073,-2.914,-2.9074,-2.9087,-2.9075,-2.9074,-2.9078,-2.9154,-2.9156,-2.9158,-2.916,0,-2.9229,-2.9208,-2.9217,-2.922,-2.9228,-2.9228,-2.9224,-2.9236,-2.9183,-2.9196,-2.9211,-2.9216,-2.9227,-2.924,-2.9242,-2.9231,-2.9188,-2.9181,-2.9194,-2.9209,-2.9223,-2.9218,-2.9008,-2.9177,-2.9175,-2.9174,-2.9173,-2.9172,-2.9351,-2.9376,-2.936,-2.9372,-2.9364,-2.9362,-2.9382,-2.9359,-2.937,-2.9375,-2.9346,-2.9368,-2.9356,-2.9355,-2.9349,-2.9367,-2.9336,-2.9355,-2.936,-2.9366,-2.9376,-2.922,-2.9367,-2.9366,-2.9366,-2.9365,-2.9365,0,-2.9508,-2.9495,-2.9507,-2.9503,-2.9514,-2.9471,-2.9465,-2.9477,-2.9497,-2.9489,-2.9497,-2.9516,-2.9528,-2.9502,-2.9511,-2.953,-2.9511,-2.9534,-2.9533,-2.9531,-2.9402,-2.939,-2.955,-2.955,-2.955,-2.955,-2.955,-2.955,-2.9591,-2.9631,-2.9609,-2.9645,-2.9631,-2.9652,-2.9653,-2.9652,-2.9645,-2.9669,-2.9679,-2.9661,-2.9646,-2.9654,-2.9664,-2.9656,-2.9662,-2.9694,-2.9679,-2.9558,-2.954,-2.9523,-2.9512,-2.9695,-2.9695,-2.9807,-2.9808,-2.9809]},{"header":{"parameterUnit":"m.s-1","parameterCategory":1,"la1":30.2991,"la2":30.254,"lo1":-89.0895,"lo2":-89.0444,"dy":0.0017,"dx":0.0017,"nx":28,"ny":28,"refTime":"2025-08-23T21:00:00:Z","depth":0,"parameterNumber":3,"parameterNumberName":"V-component_of_WINDS"},"data":[0,0,0,0,0,0,0,0,0,0,0,0,0,0,0,0,0,0,0,0,0,0,0,0,0,0,0,0,0,0,0,0,0,0,0,0,0,0,0,0,0,0,0,0,0,0,0,0,0,0,0,0,0,0,0,0,0,0,0.6462,0.6462,0,0.6474,0.6474,0.6474,0.6486,0.6486,0.6487,0.6487,0.6498,0.6498,0.6498,0,0,0,0,0,0,0,0,0,0,0,0,0,0.645,0.6451,0.6462,0.6462,0.6463,0.6474,0.6474,0.6474,0.6486,0.6486,0.6487,0.6487,0.6498,0.6498,0.6498,0,0,0,0,0,0,0,0,0,0,0,0,0,0.6458,0.6451,0.6462,0.647,0.6471,0.6474,0.6474,0.6474,0.6486,0.6486,0.6487,0.6487,0.6497,0.6498,0.6498,0.6494,0,0,0.6498,0.6498,0,0,0,0,0,0,0,0,0.6458,0.6458,0.6469,0.647,0.647,0.6479,0.6474,0.6481,0.6486,0.648,0.6487,0.6487,0.6491,0.6492,0.6493,0.6494,0.6494,0.6498,0.6498,0.6499,0.6499,0,0,0,0,0,0,0,0.6457,0.6458,0.6467,0.6469,0.647,0.6473,0.6474,0.6475,0.6484,0.6481,0.6482,0.6483,0.6492,0.6493,0.6494,0.6495,0.6498,0.6499,0.6499,0.6499,0.6492,0.6492,0,0,0,0,0,0,0.6455,0.6457,0.6466,0.6467,0.6465,0.6473,0.6474,0.6476,0.6484,0.6486,0.6483,0.6484,0.6493,0.6493,0.6494,0.6489,0.6499,0.6499,0.6499,0.6492,0.6492,0.6491,0,0,0,0,0,0,0.6455,0.6456,0.6466,0.6463,0.6464,0.6473,0.6474,0.6476,0.6478,0.6486,0.6487,0.6483,0.6493,0.6494,0.6493,0.649,0.6499,0.6499,0.6492,0.6492,0.6492,0.6479,0,0,0,0,0,0,0.6455,0.6456,0.6455,0.6462,0.6464,0.6465,0.6474,0.6476,0.6478,0.6479,0.6486,0.6487,0.6493,0.6493,0.6494,0.649,0.6499,0.6493,0.6492,0.6492,0.648,0.6478,0.6477,0,0,0,0,0,0.6454,0.6451,0.6454,0.6455,0.6463,0.6465,0.6466,0.6473,0.6478,0.6476,0.6481,0.6487,0.649,0.6493,0.6494,0.649,0.6493,0.6492,0.6492,0.648,0.6479,0.6477,0,0,0,0,0,0,0.6442,0.6452,0.6456,0.6455,0.6459,0.6467,0.6466,0.6471,0.6474,0.6475,0.6483,0.6485,0.6483,0.6487,0.649,0.6486,0.6492,0.6492,0.6484,0.6482,0.648,0.6479,0.6499,0,0,0,0,0,0.6439,0.644,0.6449,0.6447,0.6449,0.6457,0.6458,0.6463,0.6468,0.647,0.6475,0.6479,0.6481,0.6482,0.6484,0.6481,0.6482,0.6478,0.6477,0.6476,0.6475,0.6473,0.6471,0.6489,0.6489,0.6489,0,0,0.6433,0.6439,0.6439,0.6445,0.6448,0.6449,0.6458,0.6459,0.6459,0.647,0.647,0.6473,0.6478,0.6477,0.6476,0.6479,0.647,0.6475,0.6474,0.6474,0.6472,0.647,0.6469,0.6489,0.6489,0.6489,0,0,0.6422,0.6427,0.6425,0.6429,0.6435,0.644,0.644,0.6447,0.645,0.645,0.6458,0.6459,0.6462,0.6465,0.6467,0.6457,0.6462,0.6458,0.645,0.6448,0.6446,0.6445,0.6441,0.6439,0.6457,0.6457,0.6457,0,0.6414,0.6416,0.6424,0.6424,0.6426,0.6436,0.6434,0.6437,0.6443,0.6444,0.6448,0.6452,0.6456,0.6455,0.6452,0.6454,0.6453,0.6457,0.6446,0.6445,0.6444,0.644,0.6438,0.6456,0.6457,0.6457,0.6457,0,0.6405,0.6406,0.6404,0.641,0.6412,0.6411,0.6419,0.642,0.6425,0.643,0.6429,0.6435,0.6438,0.6438,0.6443,0.6437,0.6439,0.6444,0.6451,0.6441,0.6437,0.6436,0.6455,0.6456,0.6456,0.6456,0,0,0.6386,0.6396,0.6395,0.6398,0.6405,0.6406,0.6405,0.6409,0.6409,0.6413,0.6412,0.6415,0.642,0.6422,0.6427,0.6426,0.6417,0.6431,0.6431,0.6427,0.641,0.6405,0.6403,0.6421,0.642,0.642,0.6409,0,0.6376,0.6375,0.6383,0.6381,0.6381,0.6391,0.639,0.6394,0.6399,0.64,0.6405,0.6406,0.6413,0.6414,0.6413,0.6418,0.6413,0.6419,0.6419,0.6419,0.6417,0.6401,0.6396,0.6386,0.6408,0.6407,0.6407,0,0.6364,0.6367,0.6364,0.6371,0.6372,0.6371,0.6375,0.6376,0.6381,0.6384,0.6387,0.6393,0.6393,0.6399,0.6399,0.6402,0.6403,0.6406,0.6405,0.6405,0.6412,0.6399,0.6382,0.638,0.6405,0.6406,0.6406,0,0.6349,0.6353,0.6352,0.6354,0.6362,0.6361,0.6365,0.637,0.6371,0.6374,0.6375,0.6378,0.6379,0.6381,0.6388,0.6392,0.6386,0.6393,0.6388,0.6388,0.6385,0.6385,0.6367,0.6387,0.6388,0.6388,0.6388,0,0.6336,0.6334,0.6345,0.6344,0.6342,0.6351,0.6349,0.6353,0.6357,0.6357,0.6366,0.6365,0.6375,0.6375,0.6381,0.6379,0.6379,0.6382,0.6383,0.638,0.638,0.638,0.6381,0.6387,0.6387,0.6387,0.6387,0,0.6319,0.6326,0.6326,0.6334,0.6336,0.6334,0.634,0.634,0.6345,0.6345,0.6345,0.6353,0.6354,0.6361,0.6364,0.6368,0.6363,0.6367,0.6362,0.6362,0.6356,0.6356,0.6337,0.6334,0.6357,0.6357,0.6357,0,0.631,0.6308,0.6316,0.6317,0.632,0.6321,0.6322,0.6331,0.6332,0.6337,0.6336,0.6338,0.634,0.6341,0.6347,0.6349,0.6352,0.6345,0.6352,0.6349,0.635,0.635,0.6349,0.6343,0.6342,0.6342,0.6342,0,0.6292,0.6296,0.6298,0.6301,0.6303,0.6305,0.6309,0.6309,0.6318,0.6319,0.632,0.6322,0.6325,0.6326,0.6329,0.6332,0.6338,0.634,0.6338,0.6335,0.6332,0.6332,0.6356,0.634,0.634,0.634,0.634,0.634,0.6278,0.6277,0.6282,0.6284,0.6288,0.629,0.629,0.6295,0.6297,0.63,0.6305,0.6305,0.631,0.6315,0.6317,0.6317,0.6321,0.6319,0.6319,0.6318,0.6316,0.6333,0.6318,0.6318,0.6318,0.6318,0.6318,0,0.626,0.6264,0.6266,0.627,0.6271,0.6278,0.6282,0.6282,0.6282,0.6286,0.6288,0.6289,0.6291,0.6297,0.6299,0.6298,0.63,0.6298,0.6297,0.6298,0.6313,0.6314,0.6295,0.6295,0.6295,0.6295,0.6295,0.6295,0.6251,0.625,0.6254,0.6254,0.6258,0.6258,0.626,0.6262,0.6265,0.6266,0.6268,0.6272,0.6277,0.6279,0.628,0.6282,0.6282,0.6278,0.6281,0.6295,0.6297,0.6299,0.6299,0.6278,0.6278,0.6265,0.6265,0.6265]}]]